Year,Month,Day,Hour,Minute,Value (Times are PST for temperature in C)
2015,08,11,00,00,17.30
2015,08,11,00,01,17.20
2015,08,11,00,02,17.20
2015,08,11,00,03,17.10
2015,08,11,00,04,17.00
2015,08,11,00,05,17.00
2015,08,11,00,06,16.90
2015,08,11,00,07,16.90
2015,08,11,00,08,16.80
2015,08,11,00,09,16.80
2015,08,11,00,10,16.70
2015,08,11,00,11,16.70
2015,08,11,00,12,16.70
2015,08,11,00,13,16.60
2015,08,11,00,14,16.60
2015,08,11,00,15,16.60
2015,08,11,00,16,16.50
2015,08,11,00,17,16.50
2015,08,11,00,18,16.50
2015,08,11,00,19,16.50
2015,08,11,00,20,16.50
2015,08,11,00,21,16.50
2015,08,11,00,22,16.40
2015,08,11,00,23,16.40
2015,08,11,00,24,16.40
2015,08,11,00,25,16.40
2015,08,11,00,26,16.40
2015,08,11,00,27,16.40
2015,08,11,00,28,16.40
2015,08,11,00,29,16.30
2015,08,11,00,30,16.30
2015,08,11,00,31,16.30
2015,08,11,00,32,16.30
2015,08,11,00,33,16.20
2015,08,11,00,34,16.20
2015,08,11,00,35,16.20
2015,08,11,00,36,16.20
2015,08,11,00,37,16.10
2015,08,11,00,38,16.10
2015,08,11,00,39,16.10
2015,08,11,00,40,16.00
2015,08,11,00,41,16.00
2015,08,11,00,42,16.00
2015,08,11,00,43,16.00
2015,08,11,00,44,16.00
2015,08,11,00,45,16.10
2015,08,11,00,46,16.10
2015,08,11,00,47,16.10
2015,08,11,00,48,16.10
2015,08,11,00,49,16.10
2015,08,11,00,50,16.20
2015,08,11,00,51,16.20
2015,08,11,00,52,16.20
2015,08,11,00,53,16.20
2015,08,11,00,54,16.20
2015,08,11,00,55,16.20
2015,08,11,00,56,16.20
2015,08,11,00,57,16.20
2015,08,11,00,58,16.20
2015,08,11,00,59,16.20
2015,08,11,01,00,16.20
2015,08,11,01,01,16.20
2015,08,11,01,02,16.20
2015,08,11,01,03,16.20
2015,08,11,01,04,16.20
2015,08,11,01,05,16.20
2015,08,11,01,06,16.20
2015,08,11,01,07,16.20
2015,08,11,01,08,16.20
2015,08,11,01,09,16.20
2015,08,11,01,10,16.20
2015,08,11,01,11,16.10
2015,08,11,01,12,16.10
2015,08,11,01,13,16.10
2015,08,11,01,14,16.10
2015,08,11,01,15,16.10
2015,08,11,01,16,16.10
2015,08,11,01,17,16.10
2015,08,11,01,18,16.10
2015,08,11,01,19,16.20
2015,08,11,01,20,16.20
2015,08,11,01,21,16.20
2015,08,11,01,22,16.20
2015,08,11,01,23,16.20
2015,08,11,01,24,16.10
2015,08,11,01,25,16.10
2015,08,11,01,26,16.10
2015,08,11,01,27,16.10
2015,08,11,01,28,16.10
2015,08,11,01,29,16.10
2015,08,11,01,30,16.10
2015,08,11,01,31,16.10
2015,08,11,01,32,16.10
2015,08,11,01,33,16.10
2015,08,11,01,34,16.10
2015,08,11,01,35,16.10
2015,08,11,01,36,16.20
2015,08,11,01,37,16.20
2015,08,11,01,38,16.20
2015,08,11,01,39,16.20
2015,08,11,01,40,16.20
2015,08,11,01,41,16.20
2015,08,11,01,42,16.20
2015,08,11,01,43,16.20
2015,08,11,01,44,16.20
2015,08,11,01,45,16.20
2015,08,11,01,46,16.20
2015,08,11,01,47,16.20
2015,08,11,01,48,16.20
2015,08,11,01,49,16.20
2015,08,11,01,50,16.20
2015,08,11,01,51,16.20
2015,08,11,01,52,16.10
2015,08,11,01,53,16.10
2015,08,11,01,54,16.00
2015,08,11,01,55,15.90
2015,08,11,01,56,15.90
2015,08,11,01,57,15.80
2015,08,11,01,58,15.80
2015,08,11,01,59,15.80
2015,08,11,02,00,15.70
2015,08,11,02,01,15.70
2015,08,11,02,02,15.70
2015,08,11,02,03,15.70
2015,08,11,02,04,15.60
2015,08,11,02,05,15.60
2015,08,11,02,06,15.60
2015,08,11,02,07,15.60
2015,08,11,02,08,15.60
2015,08,11,02,09,15.60
2015,08,11,02,10,15.60
2015,08,11,02,11,15.60
2015,08,11,02,12,15.50
2015,08,11,02,13,15.50
2015,08,11,02,14,15.50
2015,08,11,02,15,15.50
2015,08,11,02,16,15.50
2015,08,11,02,17,15.40
2015,08,11,02,18,15.40
2015,08,11,02,19,15.40
2015,08,11,02,20,15.40
2015,08,11,02,21,15.40
2015,08,11,02,22,15.30
2015,08,11,02,23,15.30
2015,08,11,02,24,15.30
2015,08,11,02,25,15.30
2015,08,11,02,26,15.30
2015,08,11,02,27,15.30
2015,08,11,02,28,15.30
2015,08,11,02,29,15.30
2015,08,11,02,30,15.30
2015,08,11,02,31,15.30
2015,08,11,02,32,15.30
2015,08,11,02,33,15.30
2015,08,11,02,34,15.30
2015,08,11,02,35,15.30
2015,08,11,02,36,15.30
2015,08,11,02,37,15.30
2015,08,11,02,38,15.30
2015,08,11,02,39,15.30
2015,08,11,02,40,15.20
2015,08,11,02,41,15.20
2015,08,11,02,42,15.20
2015,08,11,02,43,15.20
2015,08,11,02,44,15.20
2015,08,11,02,45,15.20
2015,08,11,02,46,15.20
2015,08,11,02,47,15.20
2015,08,11,02,48,15.20
2015,08,11,02,49,15.20
2015,08,11,02,50,15.20
2015,08,11,02,51,15.20
2015,08,11,02,52,15.20
2015,08,11,02,53,15.10
2015,08,11,02,54,15.10
2015,08,11,02,55,15.10
2015,08,11,02,56,15.10
2015,08,11,02,57,15.10
2015,08,11,02,58,15.10
2015,08,11,02,59,15.10
2015,08,11,03,00,15.10
2015,08,11,03,01,15.10
2015,08,11,03,02,15.10
2015,08,11,03,03,15.10
2015,08,11,03,06,15.20
2015,08,11,03,07,15.20
2015,08,11,03,08,15.20
2015,08,11,03,09,15.30
2015,08,11,03,10,15.30
2015,08,11,03,11,15.30
2015,08,11,03,12,15.40
2015,08,11,03,13,15.40
2015,08,11,03,14,15.40
2015,08,11,03,15,15.50
2015,08,11,03,16,15.50
2015,08,11,03,17,15.50
2015,08,11,03,18,15.60
2015,08,11,03,19,15.60
2015,08,11,03,20,15.60
2015,08,11,03,21,15.60
2015,08,11,03,22,15.60
2015,08,11,03,23,15.60
2015,08,11,03,24,15.70
2015,08,11,03,25,15.70
2015,08,11,03,26,15.70
2015,08,11,03,27,15.70
2015,08,11,03,28,15.80
2015,08,11,03,29,15.80
2015,08,11,03,30,15.80
2015,08,11,03,31,15.80
2015,08,11,03,32,15.80
2015,08,11,03,33,15.80
2015,08,11,03,34,15.80
2015,08,11,03,35,15.80
2015,08,11,03,36,15.80
2015,08,11,03,37,15.80
2015,08,11,03,38,15.80
2015,08,11,03,39,15.80
2015,08,11,03,40,15.80
2015,08,11,03,41,15.80
2015,08,11,03,42,15.80
2015,08,11,03,43,15.70
2015,08,11,03,44,15.70
2015,08,11,03,45,15.70
2015,08,11,03,46,15.70
2015,08,11,03,47,15.60
2015,08,11,03,48,15.60
2015,08,11,03,49,15.60
2015,08,11,03,50,15.50
2015,08,11,03,51,15.50
2015,08,11,03,52,15.50
2015,08,11,03,53,15.40
2015,08,11,03,54,15.40
2015,08,11,03,55,15.40
2015,08,11,03,56,15.40
2015,08,11,03,57,15.30
2015,08,11,03,58,15.30
2015,08,11,03,59,15.30
2015,08,11,04,00,15.30
2015,08,11,04,01,15.30
2015,08,11,04,02,15.20
2015,08,11,04,03,15.20
2015,08,11,04,04,15.20
2015,08,11,04,05,15.20
2015,08,11,04,06,15.20
2015,08,11,04,07,15.20
2015,08,11,04,08,15.20
2015,08,11,04,09,15.10
2015,08,11,04,10,15.10
2015,08,11,04,11,15.10
2015,08,11,04,12,15.10
2015,08,11,04,13,15.20
2015,08,11,04,14,15.20
2015,08,11,04,15,15.20
2015,08,11,04,16,15.30
2015,08,11,04,17,15.40
2015,08,11,04,18,15.40
2015,08,11,04,19,15.50
2015,08,11,04,20,15.60
2015,08,11,04,21,15.70
2015,08,11,04,22,15.70
2015,08,11,04,23,15.80
2015,08,11,04,24,15.80
2015,08,11,04,25,15.80
2015,08,11,04,26,15.80
2015,08,11,04,27,15.80
2015,08,11,04,28,15.80
2015,08,11,04,29,15.80
2015,08,11,04,30,15.80
2015,08,11,04,31,15.80
2015,08,11,04,32,15.80
2015,08,11,04,33,15.80
2015,08,11,04,34,15.80
2015,08,11,04,35,15.80
2015,08,11,04,36,15.80
2015,08,11,04,37,15.80
2015,08,11,06,52,15.50
2015,08,11,06,53,15.50
2015,08,11,06,54,15.50
2015,08,11,06,55,15.50
2015,08,11,06,56,15.50
2015,08,11,06,57,15.50
2015,08,11,06,58,15.50
2015,08,11,06,59,15.50
2015,08,11,07,00,15.50
2015,08,11,07,01,15.50
2015,08,11,07,02,15.50
2015,08,11,07,03,15.50
2015,08,11,07,04,15.50
2015,08,11,07,05,15.50
2015,08,11,07,06,15.50
2015,08,11,07,07,15.50
2015,08,11,07,08,15.50
2015,08,11,07,09,15.50
2015,08,11,07,10,15.50
2015,08,11,07,11,15.50
2015,08,11,07,12,15.50
2015,08,11,07,13,15.50
2015,08,11,07,14,15.50
2015,08,11,07,15,15.50
2015,08,11,07,16,15.60
2015,08,11,07,17,15.60
2015,08,11,07,18,15.60
2015,08,11,07,19,15.60
2015,08,11,07,20,15.60
2015,08,11,07,21,15.60
2015,08,11,07,22,15.70
2015,08,11,07,23,15.70
2015,08,11,07,24,15.70
2015,08,11,07,25,15.70
2015,08,11,07,26,15.80
2015,08,11,07,27,15.80
2015,08,11,07,28,15.80
2015,08,11,07,29,15.90
2015,08,11,07,30,15.90
2015,08,11,07,31,15.90
2015,08,11,07,32,16.00
2015,08,11,07,33,16.10
2015,08,11,07,34,16.10
2015,08,11,07,35,16.20
2015,08,11,07,36,16.20
2015,08,11,07,37,16.30
2015,08,11,07,38,16.30
2015,08,11,07,39,16.40
2015,08,11,07,40,16.40
2015,08,11,07,41,16.50
2015,08,11,07,42,16.50
2015,08,11,07,43,16.60
2015,08,11,07,44,16.60
2015,08,11,07,45,16.70
2015,08,11,07,46,16.70
2015,08,11,07,47,16.70
2015,08,11,07,48,16.80
2015,08,11,07,49,16.80
2015,08,11,07,50,16.80
2015,08,11,07,51,16.80
2015,08,11,07,52,16.90
2015,08,11,07,53,16.90
2015,08,11,07,54,17.00
2015,08,11,07,55,17.00
2015,08,11,07,56,17.10
2015,08,11,07,57,17.10
2015,08,11,07,58,17.20
2015,08,11,07,59,17.20
2015,08,11,08,00,17.30
2015,08,11,08,01,17.30
2015,08,11,08,02,17.40
2015,08,11,08,03,17.50
2015,08,11,08,04,17.50
2015,08,11,08,05,17.60
2015,08,11,08,06,17.70
2015,08,11,08,07,17.70
2015,08,11,08,08,17.80
2015,08,11,08,09,17.80
2015,08,11,08,10,17.80
2015,08,11,08,11,17.90
2015,08,11,08,12,17.90
2015,08,11,08,13,18.00
2015,08,11,08,14,18.00
2015,08,11,08,15,18.10
2015,08,11,08,16,18.10
2015,08,11,08,17,18.20
2015,08,11,08,18,18.20
2015,08,11,08,19,18.20
2015,08,11,08,20,18.20
2015,08,11,08,21,18.20
2015,08,11,08,22,18.20
2015,08,11,08,23,18.20
2015,08,11,08,24,18.20
2015,08,11,08,25,18.20
2015,08,11,08,26,18.10
2015,08,11,08,27,18.20
2015,08,11,08,28,18.20
2015,08,11,08,29,18.20
2015,08,11,08,30,18.20
2015,08,11,08,31,18.20
2015,08,11,08,32,18.20
2015,08,11,08,33,18.20
2015,08,11,08,34,18.20
2015,08,11,08,35,18.20
2015,08,11,08,36,18.20
2015,08,11,08,37,18.20
2015,08,11,08,38,18.20
2015,08,11,08,39,18.20
2015,08,11,08,40,18.20
2015,08,11,08,41,18.20
2015,08,11,08,42,18.20
2015,08,11,08,43,18.30
2015,08,11,08,44,18.30
2015,08,11,08,45,18.30
2015,08,11,08,46,18.30
2015,08,11,08,47,18.30
2015,08,11,08,48,18.30
2015,08,11,08,49,18.30
2015,08,11,08,50,18.30
2015,08,11,08,51,18.40
2015,08,11,08,52,18.40
2015,08,11,08,53,18.40
2015,08,11,08,54,18.50
2015,08,11,08,55,18.50
2015,08,11,08,56,18.60
2015,08,11,08,57,18.60
2015,08,11,08,58,18.60
2015,08,11,08,59,18.70
2015,08,11,09,00,18.70
2015,08,11,09,01,18.80
2015,08,11,09,02,18.80
2015,08,11,09,03,18.90
2015,08,11,09,04,18.90
2015,08,11,09,05,19.00
2015,08,11,09,06,19.10
2015,08,11,09,07,19.10
2015,08,11,09,08,19.20
2015,08,11,09,09,19.30
2015,08,11,09,10,19.40
2015,08,11,09,11,19.60
2015,08,11,09,12,19.80
2015,08,11,09,13,19.90
2015,08,11,09,14,20.10
2015,08,11,09,15,20.20
2015,08,11,09,16,20.40
2015,08,11,09,17,20.50
2015,08,11,09,18,20.60
2015,08,11,09,19,20.70
2015,08,11,09,20,20.90
2015,08,11,09,21,21.00
2015,08,11,09,22,21.20
2015,08,11,09,23,21.30
2015,08,11,09,24,21.50
2015,08,11,09,25,21.80
2015,08,11,09,26,21.90
2015,08,11,09,27,22.10
2015,08,11,09,28,22.30
2015,08,11,09,29,22.40
2015,08,11,09,30,22.40
2015,08,11,09,31,22.40
2015,08,11,09,32,22.40
2015,08,11,09,33,22.40
2015,08,11,09,34,22.30
2015,08,11,09,35,22.30
2015,08,11,09,36,22.20
2015,08,11,09,37,22.20
2015,08,11,09,38,22.20
2015,08,11,09,39,22.20
2015,08,11,09,40,22.30
2015,08,11,09,41,22.40
2015,08,11,09,42,22.40
2015,08,11,09,43,22.40
2015,08,11,09,44,22.50
2015,08,11,09,45,22.50
2015,08,11,09,46,22.60
2015,08,11,09,47,22.60
2015,08,11,09,48,22.60
2015,08,11,09,49,22.60
2015,08,11,09,50,22.50
2015,08,11,09,51,22.50
2015,08,11,09,52,22.50
2015,08,11,09,53,22.40
2015,08,11,09,54,22.50
2015,08,11,09,55,22.50
2015,08,11,09,56,22.50
2015,08,11,09,57,22.60
2015,08,11,09,58,22.60
2015,08,11,09,59,22.70
2015,08,11,10,00,22.70
2015,08,11,10,01,22.80
2015,08,11,10,02,22.90
2015,08,11,10,03,22.90
2015,08,11,10,04,22.90
2015,08,11,10,05,22.90
2015,08,11,10,06,22.80
2015,08,11,10,07,22.80
2015,08,11,10,08,22.80
2015,08,11,10,09,22.80
2015,08,11,10,10,22.70
2015,08,11,10,11,22.70
2015,08,11,10,12,22.70
2015,08,11,10,13,22.70
2015,08,11,10,14,22.80
2015,08,11,10,15,22.80
2015,08,11,10,16,22.90
2015,08,11,10,17,22.90
2015,08,11,10,18,22.90
2015,08,11,10,19,22.90
2015,08,11,10,20,22.90
2015,08,11,10,21,22.90
2015,08,11,10,22,23.00
2015,08,11,10,23,23.10
2015,08,11,10,24,23.10
2015,08,11,10,25,23.20
2015,08,11,10,26,23.30
2015,08,11,10,27,23.40
2015,08,11,10,28,23.50
2015,08,11,10,29,23.60
2015,08,11,10,30,23.70
2015,08,11,10,31,23.80
2015,08,11,10,32,23.90
2015,08,11,10,33,23.90
2015,08,11,10,34,24.00
2015,08,11,10,35,24.00
2015,08,11,10,36,24.00
2015,08,11,10,37,24.00
2015,08,11,10,38,24.10
2015,08,11,10,39,24.20
2015,08,11,10,40,24.20
2015,08,11,10,41,24.30
2015,08,11,10,42,24.30
2015,08,11,10,43,24.30
2015,08,11,10,44,24.30
2015,08,11,10,45,24.40
2015,08,11,10,46,24.40
2015,08,11,10,47,24.40
2015,08,11,10,48,24.40
2015,08,11,10,49,24.50
2015,08,11,10,50,24.60
2015,08,11,10,51,24.60
2015,08,11,10,52,24.70
2015,08,11,10,53,24.70
2015,08,11,10,54,24.70
2015,08,11,10,55,24.70
2015,08,11,10,56,24.70
2015,08,11,10,57,24.80
2015,08,11,10,58,24.90
2015,08,11,10,59,25.00
2015,08,11,11,00,25.10
2015,08,11,11,01,25.20
2015,08,11,11,02,25.20
2015,08,11,11,03,25.30
2015,08,11,11,04,25.30
2015,08,11,11,05,25.40
2015,08,11,11,06,25.40
2015,08,11,11,07,25.40
2015,08,11,11,08,25.30
2015,08,11,11,09,25.10
2015,08,11,11,10,24.90
2015,08,11,11,11,24.80
2015,08,11,11,12,24.80
2015,08,11,11,13,24.80
2015,08,11,11,14,24.80
2015,08,11,11,15,24.90
2015,08,11,11,16,25.00
2015,08,11,11,17,25.10
2015,08,11,11,18,25.20
2015,08,11,11,19,25.30
2015,08,11,11,20,25.20
2015,08,11,11,21,25.20
2015,08,11,11,22,25.10
2015,08,11,11,23,25.10
2015,08,11,11,24,25.20
2015,08,11,11,25,25.30
2015,08,11,11,26,25.40
2015,08,11,11,27,25.50
2015,08,11,11,28,25.60
2015,08,11,11,29,25.60
2015,08,11,11,30,25.60
2015,08,11,11,31,25.70
2015,08,11,11,32,25.70
2015,08,11,11,33,25.70
2015,08,11,11,34,25.60
2015,08,11,11,35,25.60
2015,08,11,11,36,25.60
2015,08,11,11,37,25.70
2015,08,11,11,38,25.70
2015,08,11,11,39,25.80
2015,08,11,11,40,25.80
2015,08,11,11,41,25.70
2015,08,11,11,42,25.70
2015,08,11,11,43,25.70
2015,08,11,11,44,25.70
2015,08,11,11,45,25.70
2015,08,11,11,46,25.60
2015,08,11,11,47,25.60
2015,08,11,11,48,25.60
2015,08,11,11,49,25.70
2015,08,11,11,50,25.70
2015,08,11,11,51,25.80
2015,08,11,11,52,25.90
2015,08,11,11,53,26.00
2015,08,11,11,54,26.10
2015,08,11,11,55,26.10
2015,08,11,11,56,26.20
2015,08,11,11,57,26.20
2015,08,11,11,58,26.30
2015,08,11,11,59,26.30
2015,08,11,12,00,26.30
2015,08,11,12,01,26.20
2015,08,11,12,02,26.10
2015,08,11,12,03,26.10
2015,08,11,12,04,26.10
2015,08,11,12,05,26.00
2015,08,11,12,06,26.00
2015,08,11,12,07,26.10
2015,08,11,12,08,26.00
2015,08,11,12,09,26.00
2015,08,11,12,10,26.00
2015,08,11,12,11,26.00
2015,08,11,12,12,25.90
2015,08,11,12,13,25.90
2015,08,11,12,14,26.10
2015,08,11,12,15,26.20
2015,08,11,12,16,26.30
2015,08,11,12,17,26.40
2015,08,11,12,18,26.30
2015,08,11,12,19,26.20
2015,08,11,12,20,26.10
2015,08,11,12,21,26.00
2015,08,11,12,22,25.90
2015,08,11,12,23,25.70
2015,08,11,12,24,25.60
2015,08,11,12,25,25.50
2015,08,11,12,26,25.40
2015,08,11,12,27,25.40
2015,08,11,12,28,25.60
2015,08,11,12,29,25.80
2015,08,11,12,30,25.90
2015,08,11,12,31,26.00
2015,08,11,12,32,26.00
2015,08,11,12,33,26.00
2015,08,11,12,34,25.90
2015,08,11,12,35,25.80
2015,08,11,12,36,25.90
2015,08,11,12,37,26.00
2015,08,11,12,38,26.10
2015,08,11,12,39,26.20
2015,08,11,12,40,26.30
2015,08,11,12,41,26.30
2015,08,11,12,42,26.40
2015,08,11,12,43,26.40
2015,08,11,12,44,26.40
2015,08,11,12,45,26.50
2015,08,11,12,46,26.60
2015,08,11,12,47,26.70
2015,08,11,12,48,26.70
2015,08,11,12,49,26.70
2015,08,11,12,50,26.70
2015,08,11,12,51,26.70
2015,08,11,12,52,26.70
2015,08,11,12,53,26.80
2015,08,11,12,54,26.90
2015,08,11,12,55,27.00
2015,08,11,12,56,27.00
2015,08,11,12,57,27.00
2015,08,11,12,58,27.10
2015,08,11,12,59,27.10
2015,08,11,13,00,27.10
2015,08,11,13,01,27.00
2015,08,11,13,02,26.80
2015,08,11,13,03,26.70
2015,08,11,13,04,26.60
2015,08,11,13,05,26.60
2015,08,11,13,06,26.50
2015,08,11,13,07,26.40
2015,08,11,13,08,26.40
2015,08,11,13,09,26.50
2015,08,11,13,10,26.60
2015,08,11,13,11,26.80
2015,08,11,13,12,26.90
2015,08,11,13,13,26.90
2015,08,11,13,14,27.00
2015,08,11,13,15,27.00
2015,08,11,13,16,27.10
2015,08,11,13,17,27.10
2015,08,11,13,18,26.90
2015,08,11,13,19,26.80
2015,08,11,13,20,26.80
2015,08,11,13,21,26.90
2015,08,11,13,22,27.00
2015,08,11,13,23,27.20
2015,08,11,13,24,27.30
2015,08,11,13,25,27.50
2015,08,11,13,26,27.60
2015,08,11,13,27,27.70
2015,08,11,13,28,27.60
2015,08,11,13,29,27.50
2015,08,11,13,30,27.40
2015,08,11,13,31,27.30
2015,08,11,13,32,27.20
2015,08,11,13,33,27.10
2015,08,11,13,34,27.10
2015,08,11,13,35,27.10
2015,08,11,13,36,27.20
2015,08,11,13,37,27.30
2015,08,11,13,38,27.40
2015,08,11,13,39,27.60
2015,08,11,13,40,27.70
2015,08,11,13,41,27.80
2015,08,11,13,42,27.80
2015,08,11,13,43,27.90
2015,08,11,13,44,28.00
2015,08,11,13,45,28.10
2015,08,11,13,46,28.20
2015,08,11,13,47,28.30
2015,08,11,13,48,28.30
2015,08,11,13,49,28.40
2015,08,11,13,50,28.40
2015,08,11,13,51,28.40
2015,08,11,13,52,28.40
2015,08,11,13,53,28.40
2015,08,11,13,54,28.40
2015,08,11,13,55,28.40
2015,08,11,13,56,28.40
2015,08,11,13,57,28.30
2015,08,11,13,58,28.30
2015,08,11,13,59,28.30
2015,08,11,14,00,28.30
2015,08,11,14,01,28.40
2015,08,11,14,02,28.40
2015,08,11,14,03,28.30
2015,08,11,14,04,28.30
2015,08,11,14,05,28.30
2015,08,11,14,06,28.30
2015,08,11,14,07,28.30
2015,08,11,14,08,28.30
2015,08,11,14,09,28.30
2015,08,11,14,10,28.30
2015,08,11,14,11,28.40
2015,08,11,14,12,28.50
2015,08,11,14,13,28.50
2015,08,11,14,14,28.60
2015,08,11,14,15,28.60
2015,08,11,14,16,28.60
2015,08,11,14,17,28.70
2015,08,11,14,18,28.80
2015,08,11,14,19,28.80
2015,08,11,14,20,28.80
2015,08,11,14,21,28.80
2015,08,11,14,22,28.80
2015,08,11,14,23,28.90
2015,08,11,14,24,29.00
2015,08,11,14,25,29.00
2015,08,11,14,26,28.90
2015,08,11,14,27,28.70
2015,08,11,14,28,28.70
2015,08,11,14,29,28.70
2015,08,11,14,30,28.60
2015,08,11,14,31,28.60
2015,08,11,14,32,28.50
2015,08,11,14,33,28.40
2015,08,11,14,34,28.30
2015,08,11,14,35,28.20
2015,08,11,14,36,28.30
2015,08,11,14,37,28.30
2015,08,11,14,38,28.40
2015,08,11,14,39,28.40
2015,08,11,14,40,28.30
2015,08,11,14,41,28.30
2015,08,11,14,42,28.20
2015,08,11,14,43,28.10
2015,08,11,14,44,28.10
2015,08,11,14,45,28.10
2015,08,11,14,46,28.10
2015,08,11,14,47,28.00
2015,08,11,14,48,28.00
2015,08,11,14,49,28.00
2015,08,11,14,50,27.90
2015,08,11,14,51,27.80
2015,08,11,14,52,27.80
2015,08,11,14,53,27.80
2015,08,11,14,54,27.70
2015,08,11,14,55,27.70
2015,08,11,14,56,27.70
2015,08,11,14,57,27.70
2015,08,11,14,58,27.70
2015,08,11,14,59,27.80
2015,08,11,15,00,27.80
2015,08,11,15,01,27.90
2015,08,11,15,02,27.90
2015,08,11,15,03,27.90
2015,08,11,15,04,27.80
2015,08,11,15,05,27.80
2015,08,11,15,06,27.80
2015,08,11,15,07,27.90
2015,08,11,15,08,27.90
2015,08,11,15,09,28.00
2015,08,11,15,10,28.00
2015,08,11,15,11,28.00
2015,08,11,15,12,28.00
2015,08,11,15,13,28.00
2015,08,11,15,14,28.10
2015,08,11,15,15,28.10
2015,08,11,15,16,28.20
2015,08,11,15,17,28.30
2015,08,11,15,18,28.40
2015,08,11,15,19,28.50
2015,08,11,15,20,28.50
2015,08,11,15,21,28.50
2015,08,11,15,22,28.50
2015,08,11,15,23,28.40
2015,08,11,15,24,28.40
2015,08,11,15,25,28.30
2015,08,11,15,26,28.40
2015,08,11,15,27,28.60
2015,08,11,15,28,28.70
2015,08,11,15,29,28.90
2015,08,11,15,30,29.10
2015,08,11,15,31,29.20
2015,08,11,15,32,29.20
2015,08,11,15,33,29.30
2015,08,11,15,34,29.30
2015,08,11,15,35,29.30
2015,08,11,15,36,29.30
2015,08,11,15,37,29.30
2015,08,11,15,38,29.30
2015,08,11,15,39,29.40
2015,08,11,15,40,29.50
2015,08,11,15,41,29.50
2015,08,11,15,42,29.60
2015,08,11,15,43,29.60
2015,08,11,15,44,29.60
2015,08,11,15,45,29.60
2015,08,11,15,46,29.60
2015,08,11,15,47,29.60
2015,08,11,15,48,29.70
2015,08,11,15,49,29.80
2015,08,11,15,50,29.90
2015,08,11,15,51,30.10
2015,08,11,15,52,30.30
2015,08,11,15,53,30.40
2015,08,11,15,54,30.60
2015,08,11,15,55,30.70
2015,08,11,15,56,30.80
2015,08,11,15,57,30.90
2015,08,11,15,58,31.00
2015,08,11,15,59,31.10
2015,08,11,16,00,31.10
2015,08,11,16,01,31.20
2015,08,11,16,02,31.20
2015,08,11,16,03,31.20
2015,08,11,16,04,31.30
2015,08,11,16,05,31.30
2015,08,11,16,06,31.30
2015,08,11,16,07,31.30
2015,08,11,16,08,31.20
2015,08,11,16,09,31.20
2015,08,11,16,10,31.00
2015,08,11,16,11,30.80
2015,08,11,16,12,30.70
2015,08,11,16,13,30.60
2015,08,11,16,14,30.60
2015,08,11,16,15,30.70
2015,08,11,16,16,30.70
2015,08,11,16,17,30.70
2015,08,11,16,18,30.60
2015,08,11,16,19,30.60
2015,08,11,16,20,30.60
2015,08,11,16,21,30.60
2015,08,11,16,22,30.50
2015,08,11,16,23,30.40
2015,08,11,16,24,30.30
2015,08,11,16,25,30.20
2015,08,11,16,26,30.10
2015,08,11,16,27,30.00
2015,08,11,16,28,30.00
2015,08,11,16,29,30.00
2015,08,11,16,30,30.00
2015,08,11,16,31,30.00
2015,08,11,16,32,30.00
2015,08,11,16,33,30.10
2015,08,11,16,34,30.10
2015,08,11,16,35,30.10
2015,08,11,16,36,30.10
2015,08,11,16,37,30.00
2015,08,11,16,38,29.90
2015,08,11,16,39,29.90
2015,08,11,16,40,29.90
2015,08,11,16,41,29.90
2015,08,11,16,42,29.90
2015,08,11,16,43,29.90
2015,08,11,16,44,29.90
2015,08,11,16,45,29.90
2015,08,11,16,46,29.90
2015,08,11,16,47,30.00
2015,08,11,16,48,30.00
2015,08,11,16,49,30.00
2015,08,11,16,50,30.10
2015,08,11,16,51,30.10
2015,08,11,16,52,30.00
2015,08,11,16,53,30.00
2015,08,11,16,54,29.90
2015,08,11,16,55,29.90
2015,08,11,16,56,29.80
2015,08,11,16,57,29.80
2015,08,11,16,58,29.70
2015,08,11,16,59,29.70
2015,08,11,17,00,29.70
2015,08,11,17,01,29.70
2015,08,11,17,02,29.80
2015,08,11,17,03,29.80
2015,08,11,17,04,29.80
2015,08,11,17,05,29.80
2015,08,11,17,06,29.70
2015,08,11,17,07,29.70
2015,08,11,17,08,29.60
2015,08,11,17,09,29.60
2015,08,11,17,10,29.50
2015,08,11,17,11,29.50
2015,08,11,17,12,29.40
2015,08,11,17,13,29.40
2015,08,11,17,14,29.40
2015,08,11,17,15,29.40
2015,08,11,17,16,29.40
2015,08,11,17,17,29.40
2015,08,11,17,18,29.50
2015,08,11,17,19,29.50
2015,08,11,17,20,29.50
2015,08,11,17,21,29.60
2015,08,11,17,22,29.60
2015,08,11,17,23,29.60
2015,08,11,17,24,29.50
2015,08,11,17,25,29.50
2015,08,11,17,26,29.50
2015,08,11,17,27,29.40
2015,08,11,17,28,29.40
2015,08,11,17,29,29.30
2015,08,11,17,30,29.30
2015,08,11,17,31,29.30
2015,08,11,17,32,29.30
2015,08,11,17,33,29.30
2015,08,11,17,34,29.20
2015,08,11,17,35,29.20
2015,08,11,17,36,29.10
2015,08,11,17,37,29.10
2015,08,11,17,38,29.00
2015,08,11,17,39,29.00
2015,08,11,17,40,28.90
2015,08,11,17,41,28.90
2015,08,11,17,42,28.90
2015,08,11,17,43,28.90
2015,08,11,17,44,28.90
2015,08,11,17,45,28.90
2015,08,11,17,46,28.90
2015,08,11,17,47,29.00
2015,08,11,17,48,29.00
2015,08,11,17,49,29.00
2015,08,11,17,50,29.10
2015,08,11,17,51,29.10
2015,08,11,17,52,29.20
2015,08,11,17,53,29.20
2015,08,11,17,54,29.30
2015,08,11,17,55,29.40
2015,08,11,17,56,29.40
2015,08,11,17,57,29.50
2015,08,11,17,58,29.50
2015,08,11,17,59,29.60
2015,08,11,18,00,29.60
2015,08,11,18,01,29.60
2015,08,11,18,02,29.60
2015,08,11,18,03,29.60
2015,08,11,18,04,29.60
2015,08,11,18,05,29.60
2015,08,11,18,06,29.60
2015,08,11,18,07,29.60
2015,08,11,18,08,29.50
2015,08,11,18,09,29.50
2015,08,11,18,10,29.40
2015,08,11,18,11,29.40
2015,08,11,18,12,29.30
2015,08,11,18,13,29.30
2015,08,11,18,14,29.20
2015,08,11,18,15,29.10
2015,08,11,18,16,29.10
2015,08,11,18,17,29.00
2015,08,11,18,18,28.90
2015,08,11,18,19,28.80
2015,08,11,18,20,28.80
2015,08,11,18,21,28.70
2015,08,11,18,22,28.60
2015,08,11,18,23,28.60
2015,08,11,18,24,28.50
2015,08,11,18,25,28.40
2015,08,11,18,26,28.30
2015,08,11,18,27,28.30
2015,08,11,18,28,28.20
2015,08,11,18,29,28.20
2015,08,11,18,30,28.10
2015,08,11,18,31,28.10
2015,08,11,18,32,28.10
2015,08,11,18,33,28.00
2015,08,11,18,34,28.00
2015,08,11,18,35,28.00
2015,08,11,18,36,28.00
2015,08,11,18,37,28.00
2015,08,11,18,38,28.10
2015,08,11,18,39,28.10
2015,08,11,18,40,28.10
2015,08,11,18,41,28.20
2015,08,11,18,42,28.20
2015,08,11,18,43,28.20
2015,08,11,18,44,28.30
2015,08,11,18,45,28.30
2015,08,11,18,46,28.40
2015,08,11,18,47,28.40
2015,08,11,18,48,28.40
2015,08,11,18,49,28.40
2015,08,11,18,50,28.40
2015,08,11,18,51,28.40
2015,08,11,18,52,28.40
2015,08,11,18,53,28.40
2015,08,11,18,54,28.40
2015,08,11,18,55,28.40
2015,08,11,18,56,28.40
2015,08,11,18,57,28.40
2015,08,11,18,58,28.40
2015,08,11,18,59,28.30
2015,08,11,19,00,28.30
2015,08,11,19,01,28.30
2015,08,11,19,02,28.30
2015,08,11,19,03,28.20
2015,08,11,19,04,28.20
2015,08,11,19,05,28.10
2015,08,11,19,06,28.10
2015,08,11,19,07,28.10
2015,08,11,19,08,28.10
2015,08,11,19,09,28.00
2015,08,11,19,10,28.00
2015,08,11,19,11,28.00
2015,08,11,19,12,28.00
2015,08,11,19,13,28.00
2015,08,11,19,14,28.00
2015,08,11,19,15,28.10
2015,08,11,19,16,28.00
2015,08,11,19,17,28.10
2015,08,11,19,18,28.10
2015,08,11,19,19,28.10
2015,08,11,19,20,28.10
2015,08,11,19,21,28.10
2015,08,11,19,22,28.10
2015,08,11,19,23,28.10
2015,08,11,19,24,28.10
2015,08,11,19,25,28.10
2015,08,11,19,26,28.10
2015,08,11,19,27,28.10
2015,08,11,19,28,28.00
2015,08,11,19,29,28.00
2015,08,11,19,30,28.00
2015,08,11,19,31,27.90
2015,08,11,19,32,27.90
2015,08,11,19,33,27.90
2015,08,11,19,34,27.90
2015,08,11,19,35,27.80